Find OneWeb SL0330

NORAD ID: 49108 Int'l Des: 2021-075 Owner: ONEWEBN Country: UK Constellation: oneweb operational
LEOCIRCULARPOLARONEWEB_TYPE

当前视图

正在加载3D地球...

About OneWeb SL0330

OneWeb SL0330 (NORAD 49108) is a oneweb constellation satellite launched Aug 21, 2021 by ONEWEBN of UK. It operates in LEO, CIRCULAR, POLAR, ONEWEB_TYPE orbit with a mass of 148.00 kg.

关于 OneWeb SL0330

正在加载描述...

即将过境

Passes for default location (London). Set your location on the main map for personalized predictions.

高度历史

Loading altitude history...

两行轨道根数

1 49108U 21075AK 26194.53518423 .00000078 00000-0 16672-3 0 9990
2 49108 87.9143 0.6377 0002006 89.2576 270.8786 13.17646811237091
Epoch: Jul 13, 2026 • Age: 15 hours

当前状态

高度 1195.6 km
远地点 / 近地点 N/A
速度 7.26 km/s
星下点 11.04°N, 176.12°W
发射日期 Aug 21, 2021
运行时间 4.8 years
类型 internet

技术详情

分类 Payload
质量 148.00 kg
干质量 140.00 kg
总质量 148.00 kg
长度 1.30 m
直径 1.00 m
跨度 5.00 m
形状 Trapezoid+2 pan
制造商 ONEWUS
平台类型 ARROW
阶段状态 In Orbit
所有者/国家 ONEWEBN/UK

Most Searched